Location: Albany
(35.0000°S, 118.0000°E)
Time: 11:24:19
(UTC-04:00)

ERS-1 Rocket - Visible Passes

Search period start: 07 July 2015 00:00
Search period end: 17 July 2015 00:00
Orbit: 755 x 758 km, 98.7° (Epoch: 06 July)

Date Brightness Start Highest point End Pass type
(mag) Time Alt. Az. Time Alt. Az. Time Alt. Az.
07 Jul 5.3 18:41:23 10° ENE 18:45:10 22° ESE 18:49:08 10° SSE visible
10 Jul 5.6 18:23:36 10° E 18:26:11 15° ESE 18:29:01 10° SSE visible
12 Jul 5.3 18:42:20 10° ENE 18:46:08 23° ESE 18:50:07 10° SSE visible
15 Jul 5.6 18:24:32 10° E 18:27:08 15° ESE 18:30:00 10° SSE visible
